sat.trackr.live / text

‹ back to catalog

STARLINK-30246

NORAD 57615 · 2023-119P

PAYLOAD ACTIVE UNKNOWN

§ Identity

Operator
Country
US
Launch date
2023-08-11
Launch site
AFETR
Launch vehicle
Mass (kg)
RCS (m²)

Purposes: comms

External: N2YO · Heavens-Above · Gunter

§ Orbital elements

Epoch: 2026-09-20T17:20:13.135200Z

Period
93.94 min
Inclination
42.9982°
Eccentricity
0.0008735
Mean motion
15.32924591 rev/d
Perigee alt
461.1 km
Apogee alt
473.1 km
Semi-major
6,845.2 km
B*
1.3030e-3
RAAN
58.4281°
Arg perigee
296.5494°
Mean anomaly
63.4464°
Rev number
17,293

§ Raw data

STARLINK-302461 57615U 23119P   26263.72237425  .00042328  00000+0  13030-2 0  99982 57615  42.9982  58.4281 0008735 296.5494  63.4464 15.32924591172930

JSON: /api/v1/satellites/57615 · /tle

For live sub-satellite position, see the globe view (requires WebGL).

§ Visibility from observer

Set your observer location to see the next 7 days of passes ≥ 10°. The values pass through the URL so the page stays shareable.

No JS? Fill the form by hand. The geolocation button needs JavaScript.